Weather History for McAlester, OK

Change the Weather History Date:

Saturday, August 30, 2014

  Actual Average Record
Temperature  
Mean Temperature 82 °F -  
Max Temperature 91 °F 91 °F 106 °F (1954)
Min Temperature 73 °F 68 °F 56 °F (1988)
Cooling Degree Days 17    
Growing Degree Days 32 (Base 50)    
Moisture  
Dew Point 70 °F    
Average Humidity 75    
Maximum Humidity 90    
Minimum Humidity 48    
Precipitation  
Precipitation 0.03 in - - ()
Sea Level Pressure  
Sea Level Pressure 29.91 in    
Wind  
Wind Speed 6 mph (South)    
Max Wind Speed 17 mph    
Max Gust Speed 25 mph    
Visibility 9 miles    
Events Rain , Thunderstorm    
Averages and records for this station are not official NWS values.
T = Trace of Precipitation, MM = Missing Value Source: NWS Daily Summary

Daily Weather History Graph

Daily Weather History Graph

Search for Another Location

Airport:

Trip Planner

Search our weather history database for the weather conditions in past years. The results will help you decide how hot, cold, wet, or windy it might be!

Date:

Astronomy

Aug. 30, 2014 Rise Set
Actual Time 6:54 AM CDT 7:52 PM CDT
Civil Twilight 6:28 AM CDT 8:18 PM CDT
Nautical Twilight 5:57 AM CDT 8:48 PM CDT
Astronomical Twilight 5:26 AM CDT 9:20 PM CDT
Moon 11:30 AM CDT (8/30) 10:40 PM CDT (8/30)
Length of Visible Light 13h 49m
Length of Day
12h 57m
Waxing Crescent, 23% of the Moon is Illuminated
Aug 30
Waxing Crescent
Sep 2
First Quarter
Sep 8
Full
Sep 15
Last Quarter
Sep 24
New

Hourly Weather History & Observations

Time (CDT) Temp. Heat Index Dew Point Humidity Pressure Visibility Wind Dir Wind Speed Gust Speed Precip Events Conditions
12:53 AM 78.1 °F - 71.1 °F 79% 29.91 in 10.0 mi South 4.6 mph - N/A   Overcast
1:53 AM 79.0 °F - 71.1 °F 77% 29.91 in 10.0 mi South 4.6 mph - N/A   Overcast
2:53 AM 78.1 °F - 70.0 °F 76% 29.91 in 10.0 mi Variable 4.6 mph - N/A   Overcast
3:53 AM 77.0 °F - 70.0 °F 79% 29.92 in 10.0 mi South 5.8 mph - N/A   Clear
4:53 AM 75.0 °F - 70.0 °F 84% 29.93 in 10.0 mi South 4.6 mph - N/A   Mostly Cloudy
5:53 AM 75.9 °F - 69.1 °F 79% 29.93 in 10.0 mi South 5.8 mph - N/A   Overcast
6:53 AM 75.0 °F - 69.1 °F 82% 29.94 in 10.0 mi South 6.9 mph - N/A   Clear
7:53 AM 75.0 °F - 69.1 °F 82% 29.94 in 10.0 mi South 4.6 mph - N/A   Partly Cloudy
8:53 AM 75.9 °F - 71.1 °F 85% 29.95 in 10.0 mi South 5.8 mph - 0.00 in   Mostly Cloudy
9:53 AM 81.0 °F 85.2 °F 72.0 °F 74% 29.95 in 10.0 mi South 6.9 mph - N/A   Partly Cloudy
10:53 AM 82.9 °F 88.0 °F 72.0 °F 69% 29.95 in 10.0 mi Variable 4.6 mph - N/A   Partly Cloudy
11:53 AM 84.9 °F 90.7 °F 72.0 °F 65% 29.95 in 10.0 mi Variable 4.6 mph - N/A   Partly Cloudy
12:53 PM 88.0 °F 94.7 °F 72.0 °F 59% 29.93 in 10.0 mi SE 5.8 mph - N/A   Scattered Clouds
1:53 PM 89.1 °F 94.1 °F 70.0 °F 53% 29.89 in 10.0 mi SE 4.6 mph - N/A   Scattered Clouds
2:46 PM 89.1 °F 94.1 °F 70.0 °F 53% 29.91 in 10.0 mi SSE 5.8 mph - N/A Thunderstorm Scattered Clouds
2:53 PM 91.9 °F 97.4 °F 70.0 °F 48% 29.88 in 10.0 mi Variable 5.8 mph - N/A Thunderstorm Scattered Clouds
3:14 PM 90.0 °F 95.4 °F 70.0 °F 52% 29.90 in 10.0 mi South 6.9 mph - N/A Thunderstorm Thunderstorm
3:53 PM 75.9 °F - 70.0 °F 82% 29.90 in 1.8 mi WNW 13.8 mph 25.3 mph 0.00 in Rain , Thunderstorm Heavy Thunderstorms and Rain
4:02 PM 75.0 °F - 68.0 °F 79% 29.93 in 1.0 mi WSW 17.3 mph - 0.00 in Rain , Thunderstorm Heavy Thunderstorms and Rain
4:17 PM 73.9 °F - 68.0 °F 82% 29.93 in 2.0 mi NE 9.2 mph 17.3 mph N/A Rain , Thunderstorm Heavy Thunderstorms and Rain
4:26 PM 75.0 °F - 69.1 °F 82% 29.94 in 6.0 mi Variable 5.8 mph - N/A Rain , Thunderstorm Light Thunderstorms and Rain
4:53 PM 73.9 °F - 69.1 °F 85% 29.90 in 10.0 mi South 3.5 mph - N/A Thunderstorm Scattered Clouds
5:36 PM 78.1 °F - 69.1 °F 74% 29.90 in 10.0 mi Variable 4.6 mph - 0.02 in   Partly Cloudy
5:53 PM 80.1 °F 83.2 °F 70.0 °F 71% 29.87 in 10.0 mi SW 6.9 mph - 0.03 in   Partly Cloudy
6:53 PM 79.0 °F - 70.0 °F 74% 29.87 in 10.0 mi SSE 4.6 mph - N/A   Clear
7:53 PM 78.1 °F - 69.1 °F 74% 29.87 in 10.0 mi Calm Calm - N/A   Clear
8:53 PM 73.9 °F - 70.0 °F 87% 29.90 in 10.0 mi ESE 4.6 mph - N/A   Clear
9:53 PM 73.0 °F - 70.0 °F 90% 29.91 in 10.0 mi SSW 4.6 mph - N/A   Partly Cloudy
10:53 PM 73.9 °F - 69.1 °F 85% 29.91 in 10.0 mi North - - N/A   Clear
11:53 PM 75.9 °F - 70.0 °F 82% 29.91 in 10.0 mi SSE 8.1 mph - N/A   Mostly Cloudy